,,,PA_Meas_PMT16A,,PR_Meas_QMR101_102,,RH_Meas_QMH101,,SR_Meas_QMS101,,TA_Meas_QMH101,,GenWind,,GenWind,
date,time,status,PA,status,PR,status,RH,status,SR,status,TA,status,DirAvg,status,SpdAvg,
2011-07-01, 00:00:04,VALID,1001.35,VALID,0,VALID,89.0758,VALID,0,VALID,21.7521,VALID,38,VALID,1.03516,
2011-07-01, 00:01:04,VALID,1001.34,VALID,0,VALID,89.1292,VALID,0,VALID,21.7098,VALID,38,VALID,0.826172,
2011-07-01, 00:02:04,VALID,1001.31,VALID,0,VALID,89.2666,VALID,0,VALID,21.7115,VALID,38,VALID,1.03516,
2011-07-01, 00:03:04,VALID,1001.33,VALID,0,VALID,89.4268,VALID,0,VALID,21.692,VALID,38,VALID,0.930859,
2011-07-01, 00:04:04,VALID,1001.29,VALID,0,VALID,89.5641,VALID,0,VALID,21.692,VALID,38,VALID,0.745313,
2011-07-01, 00:05:04,VALID,1001.29,VALID,0,VALID,89.648,VALID,0,VALID,21.6725,VALID,38,VALID,0.779688,
2011-07-01, 00:06:04,VALID,1001.28,VALID,0,VALID,89.7243,VALID,0,VALID,21.6725,VALID,38,VALID,0.757813,
2011-07-01, 00:07:04,VALID,1001.22,VALID,0,VALID,89.7701,VALID,0.112286,VALID,21.653,VALID,38,VALID,0.853516,
2011-07-01, 00:08:04,VALID,1001.26,VALID,0,VALID,89.8464,VALID,0,VALID,21.6335,VALID,38,VALID,1.09102,
2011-07-01, 00:09:04,VALID,1001.24,VALID,0,VALID,89.8846,VALID,0,VALID,21.6335,VALID,38,VALID,1.06992,
2011-07-01, 00:10:04,VALID,1001.25,VALID,0,VALID,89.8693,VALID,0,VALID,21.614,VALID,38,VALID,1.07656,
2011-07-01, 00:11:04,VALID,1001.24,VALID,0,VALID,89.7549,VALID,0,VALID,21.614,VALID,38,VALID,1.10273,
2011-07-01, 00:12:04,VALID,1001.24,VALID,0,VALID,89.6099,VALID,0,VALID,21.6546,VALID,38,VALID,1.16875,
2011-07-01, 00:13:04,VALID,1001.24,VALID,0,VALID,89.4268,VALID,0,VALID,21.6335,VALID,38,VALID,1.04023,
2011-07-01, 00:14:04,VALID,1001.23,VALID,0,VALID,89.2437,VALID,0,VALID,21.6335,VALID,38,VALID,1.06328,
2011-07-01, 00:15:04,VALID,1001.19,VALID,0,VALID,89.1063,VALID,0,VALID,21.653,VALID,38,VALID,1.12656,
2011-07-01, 00:16:04,VALID,1001.16,VALID,0,VALID,88.9919,VALID,0,VALID,21.653,VALID,38,VALID,1.04961,
2011-07-01, 00:17:04,VALID,1001.16,VALID,0,VALID,88.8317,VALID,0,VALID,21.6725,VALID,49,VALID,1.03555,
2011-07-01, 00:18:04,VALID,1001.12,VALID,0,VALID,88.6791,VALID,0,VALID,21.6725,VALID,49,VALID,0.838281,
2011-07-01, 00:19:04,VALID,1001.09,VALID,0,VALID,88.6104,VALID,0,VALID,21.692,VALID,49,VALID,0.665234,
2011-07-01, 00:20:04,VALID,1001.06,VALID,0,VALID,88.5189,VALID,0,VALID,21.6725,VALID,49,VALID,0.773828,
2011-07-01, 00:21:04,VALID,1001.06,VALID,0,VALID,88.4883,VALID,0,VALID,21.6725,VALID,49,VALID,0.809375,
2011-07-01, 00:22:04,VALID,1001.06,VALID,0,VALID,88.496,VALID,0,VALID,21.6936,VALID,49,VALID,0.605859,
2011-07-01, 00:23:04,VALID,1001.04,VALID,0,VALID,88.5799,VALID,0,VALID,21.6335,VALID,49,VALID,0.673828,
2011-07-01, 00:24:04,VALID,1001.04,VALID,0,VALID,88.5723,VALID,0,VALID,21.614,VALID,49,VALID,0.633203,
2011-07-01, 00:25:04,VALID,1001.03,VALID,0,VALID,88.5341,VALID,0,VALID,21.5945,VALID,49,VALID,0.608984,
2011-07-01, 00:26:04,VALID,1001.04,VALID,0,VALID,88.4273,VALID,0,VALID,21.575,VALID,49,VALID,0.714844,
2011-07-01, 00:27:04,VALID,1001.08,VALID,0,VALID,88.2518,VALID,0,VALID,21.5555,VALID,49,VALID,0.629687,
2011-07-01, 00:28:04,VALID,1001.06,VALID,0,VALID,88.0916,VALID,0,VALID,21.5555,VALID,49,VALID,0.628906,
2011-07-01, 00:29:04,VALID,1001.03,VALID,0,VALID,87.8627,VALID,0,VALID,21.5555,VALID,49,VALID,0.924219,
2011-07-01, 00:30:04,VALID,1001.04,VALID,0,VALID,87.6338,VALID,0,VALID,21.5961,VALID,49,VALID,1.21992,
2011-07-01, 00:31:04,VALID,1001.09,VALID,0,VALID,87.2371,VALID,0,VALID,21.5961,VALID,49,VALID,1.40195,
2011-07-01, 00:32:04,VALID,1001.08,VALID,0,VALID,87.1074,VALID,0,VALID,21.6546,VALID,49,VALID,1.16172,
2011-07-01, 00:33:04,VALID,1001.1,VALID,0,VALID,86.9929,VALID,0,VALID,21.7131,VALID,49,VALID,1.32148,
2011-07-01, 00:34:04,VALID,1001.1,VALID,0,VALID,86.8785,VALID,0,VALID,21.7326,VALID,49,VALID,1.21211,
2011-07-01, 00:35:04,VALID,1001.12,VALID,0,VALID,86.8251,VALID,0,VALID,21.7326,VALID,49,VALID,1.25859,
2011-07-01, 00:36:04,VALID,1001.1,VALID,0,VALID,86.9319,VALID,0,VALID,21.7115,VALID,49,VALID,1.05352,
2011-07-01, 00:37:04,VALID,1001.1,VALID,0,VALID,86.9777,VALID,0,VALID,21.7326,VALID,49,VALID,1.12031,
2011-07-01, 00:38:04,VALID,1001.09,VALID,0,VALID,87.26,VALID,0,VALID,21.7326,VALID,49,VALID,1.13437,
2011-07-01, 00:39:04,VALID,1001.09,VALID,0,VALID,87.4354,VALID,0,VALID,21.6936,VALID,49,VALID,1.06445,
2011-07-01, 00:40:04,VALID,1001.08,VALID,0,VALID,87.527,VALID,0,VALID,21.6546,VALID,49,VALID,0.95,
2011-07-01, 00:41:04,VALID,1001.06,VALID,0,VALID,87.527,VALID,0,VALID,21.6351,VALID,49,VALID,0.753516,
2011-07-01, 00:42:04,VALID,1001.05,VALID,0,VALID,87.6033,VALID,0,VALID,21.6156,VALID,49,VALID,0.928125,
2011-07-01, 00:43:04,VALID,1001.04,VALID,0,VALID,87.6109,VALID,0,VALID,21.5766,VALID,36,VALID,0.656641,
2011-07-01, 00:44:04,VALID,1001.03,VALID,0,VALID,87.6109,VALID,0,VALID,21.5571,VALID,35,VALID,0.937891,
2011-07-01, 00:45:04,VALID,1001.02,VALID,0,VALID,87.6414,VALID,0,VALID,21.5376,VALID,36,VALID,0.987891,
2011-07-01, 00:46:04,VALID,1001.04,VALID,0,VALID,87.8017,VALID,0,VALID,21.5165,VALID,36,VALID,1.02695,
2011-07-01, 00:47:04,VALID,1001.02,VALID,0,VALID,87.9695,VALID,0,VALID,21.5376,VALID,36,VALID,0.995313,
2011-07-01, 00:48:04,VALID,1000.99,VALID,0,VALID,88.145,VALID,0,VALID,21.5181,VALID,36,VALID,0.894141,
2011-07-01, 00:49:04,VALID,1000.98,VALID,0,VALID,88.1832,VALID,0,VALID,21.5181,VALID,36,VALID,0.75625,
2011-07-01, 00:50:04,VALID,1000.99,VALID,0,VALID,88.1908,VALID,0,VALID,21.4791,VALID,36,VALID,0.636328,
2011-07-01, 00:51:04,VALID,1000.97,VALID,0,VALID,88.1832,VALID,0,VALID,21.4791,VALID,36,VALID,0.527344,
2011-07-01, 00:52:04,VALID,1000.99,VALID,0,VALID,88.2213,VALID,0,VALID,21.4596,VALID,36,VALID,0.564453,
2011-07-01, 00:53:04,VALID,1000.93,VALID,0,VALID,88.1755,VALID,0,VALID,21.4596,VALID,36,VALID,0.585156,
2011-07-01, 00:54:04,VALID,1000.94,VALID,0,VALID,88.0153,VALID,0,VALID,21.4401,VALID,36,VALID,0.692969,
2011-07-01, 00:55:04,VALID,1000.93,VALID,0,VALID,87.8093,VALID,0,VALID,21.4401,VALID,36,VALID,0.678125,
2011-07-01, 00:56:04,VALID,1000.91,VALID,0,VALID,87.9924,VALID,0,VALID,21.4986,VALID,36,VALID,0.752734,
2011-07-01, 00:57:04,VALID,1000.93,VALID,0,VALID,88.206,VALID,0,VALID,21.5376,VALID,36,VALID,0.814453,
2011-07-01, 00:58:04,VALID,1000.9,VALID,0,VALID,88.2594,VALID,0,VALID,21.5571,VALID,36,VALID,0.775,
2011-07-01, 00:59:04,VALID,1000.89,VALID,0,VALID,88.0306,VALID,0,VALID,21.5961,VALID,36,VALID,0.872266,
2011-07-01, 01:00:04,VALID,1000.9,VALID,0,VALID,87.6567,VALID,0,VALID,21.6156,VALID,36,VALID,0.822656,
2011-07-01, 01:01:04,VALID,1000.9,VALID,0,VALID,87.0769,VALID,0,VALID,21.614,VALID,36,VALID,0.732422,
2011-07-01, 01:02:04,VALID,1000.87,VALID,0,VALID,86.9243,VALID,0,VALID,21.614,VALID,36,VALID,0.698047,
2011-07-01, 01:03:04,VALID,1000.86,VALID,0,VALID,86.8785,VALID,0,VALID,21.6335,VALID,36,VALID,0.864844,
2011-07-01, 01:04:04,VALID,1000.85,VALID,0,VALID,86.6801,VALID,0,VALID,21.653,VALID,36,VALID,0.886719,
2011-07-01, 01:05:04,VALID,1000.85,VALID,0,VALID,86.6115,VALID,0,VALID,21.6725,VALID,36,VALID,0.892969,
2011-07-01, 01:06:04,VALID,1000.87,VALID,0,VALID,86.558,VALID,0,VALID,21.692,VALID,36,VALID,0.884766,
2011-07-01, 01:07:04,VALID,1000.83,VALID,0,VALID,86.3902,VALID,0,VALID,21.731,VALID,36,VALID,1.03633,
2011-07-01, 01:08:04,VALID,1000.84,VALID,0,VALID,86.4741,VALID,0,VALID,21.7505,VALID,36,VALID,1.05234,
2011-07-01, 01:09:04,VALID,1000.81,VALID,0,VALID,86.436,VALID,0,VALID,21.7505,VALID,36,VALID,0.928906,
2011-07-01, 01:10:04,VALID,1000.82,VALID,0,VALID,86.6649,VALID,0,VALID,21.7505,VALID,36,VALID,0.845312,
2011-07-01, 01:11:04,VALID,1000.79,VALID,0,VALID,86.9243,VALID,0,VALID,21.731,VALID,43,VALID,0.896484,
2011-07-01, 01:12:04,VALID,1000.76,VALID,0,VALID,86.97,VALID,0,VALID,21.692,VALID,53,VALID,0.870313,
2011-07-01, 01:13:04,VALID,1000.76,VALID,0,VALID,87.0234,VALID,0,VALID,21.6335,VALID,53,VALID,1.06367,
2011-07-01, 01:14:04,VALID,1000.76,VALID,0,VALID,87.2523,VALID,0,VALID,21.614,VALID,53,VALID,0.960156,
2011-07-01, 01:15:04,VALID,1000.76,VALID,0,VALID,87.6033,VALID,0,VALID,21.614,VALID,53,VALID,0.833203,
2011-07-01, 01:16:04,VALID,1000.77,VALID,0,VALID,87.8551,VALID,0,VALID,21.6173,VALID,53,VALID,0.808203,
2011-07-01, 01:17:04,VALID,1000.74,VALID,0,VALID,88.1374,VALID,0,VALID,21.5766,VALID,53,VALID,0.725781,
2011-07-01, 01:18:04,VALID,1000.74,VALID,0,VALID,88.29,VALID,0,VALID,21.5766,VALID,53,VALID,0.604297,
2011-07-01, 01:19:04,VALID,1000.76,VALID,0,VALID,88.4731,VALID,0,VALID,21.5571,VALID,53,VALID,0.448438,
2011-07-01, 01:20:04,VALID,1000.73,VALID,0,VALID,88.6867,VALID,0,VALID,21.5376,VALID,53,VALID,0.272266,
2011-07-01, 01:21:04,VALID,1000.71,VALID,0,VALID,88.908,VALID,0,VALID,21.5181,VALID,53,VALID,0.0773437,
2011-07-01, 01:22:04,VALID,1000.72,VALID,0,VALID,88.969,VALID,0,VALID,21.5181,VALID,53,VALID,0,
2011-07-01, 01:23:04,VALID,1000.72,VALID,0,VALID,89.03,VALID,0,VALID,21.4791,VALID,53,VALID,0.0246094,
2011-07-01, 01:24:04,VALID,1000.72,VALID,0,VALID,89.1368,VALID,0,VALID,21.4596,VALID,53,VALID,0,
2011-07-01, 01:25:04,VALID,1000.71,VALID,0,VALID,89.2666,VALID,0,VALID,21.4596,VALID,53,VALID,0.096875,
2011-07-01, 01:26:04,VALID,1000.71,VALID,0,VALID,89.5107,VALID,0,VALID,21.4596,VALID,53,VALID,0.2125,
2011-07-01, 01:27:04,VALID,1000.68,VALID,0,VALID,89.7701,VALID,0,VALID,21.4596,VALID,53,VALID,0.350391,
2011-07-01, 01:28:04,VALID,1000.67,VALID,0,VALID,89.9609,VALID,0,VALID,21.4596,VALID,53,VALID,0.395312,
2011-07-01, 01:29:04,VALID,1000.67,VALID,0,VALID,90.06,VALID,0,VALID,21.4596,VALID,53,VALID,0.519141,
2011-07-01, 01:30:04,VALID,1000.65,VALID,0,VALID,90.0906,VALID,0,VALID,21.4596,VALID,53,VALID,0.444531,
2011-07-01, 01:31:04,VALID,1000.62,VALID,0,VALID,90.1668,VALID,0,VALID,21.458,VALID,53,VALID,0.461328,
2011-07-01, 01:32:04,VALID,1000.63,VALID,0,VALID,90.2508,VALID,0,VALID,21.4986,VALID,53,VALID,0.426172,
2011-07-01, 01:33:04,VALID,1000.59,VALID,0,VALID,90.3271,VALID,0,VALID,21.5165,VALID,53,VALID,0.5,
2011-07-01, 01:34:04,VALID,1000.59,VALID,0,VALID,90.2508,VALID,0,VALID,21.5165,VALID,53,VALID,0.609766,
2011-07-01, 01:35:04,VALID,1000.55,VALID,0,VALID,90.1745,VALID,0,VALID,21.5766,VALID,53,VALID,0.644141,
2011-07-01, 01:36:04,VALID,1000.55,VALID,0,VALID,89.9609,VALID,0,VALID,21.5766,VALID,53,VALID,0.649219,
2011-07-01, 01:37:04,VALID,1000.55,VALID,0,VALID,89.7854,VALID,0,VALID,21.575,VALID,53,VALID,0.639844,
2011-07-01, 01:38:04,VALID,1000.55,VALID,0,VALID,89.5946,VALID,0,VALID,21.5961,VALID,53,VALID,0.714063,
2011-07-01, 01:39:04,VALID,1000.59,VALID,0,VALID,89.3428,VALID,0,VALID,21.5555,VALID,53,VALID,0.705859,
2011-07-01, 01:40:04,VALID,1000.57,VALID,0,VALID,89.2818,VALID,0,VALID,21.5555,VALID,53,VALID,0.720703,
2011-07-01, 01:41:04,VALID,1000.59,VALID,0,VALID,89.32,VALID,0,VALID,21.5555,VALID,53,VALID,0.687109,
2011-07-01, 01:42:04,VALID,1000.58,VALID,0,VALID,89.4726,VALID,0,VALID,21.5555,VALID,53,VALID,0.651563,
2011-07-01, 01:43:04,VALID,1000.55,VALID,0,VALID,89.6099,VALID,0,VALID,21.536,VALID,53,VALID,0.597656,
2011-07-01, 01:44:04,VALID,1000.55,VALID,0,VALID,89.6938,VALID,0,VALID,21.5165,VALID,53,VALID,0.554688,
2011-07-01, 01:45:04,VALID,1000.57,VALID,0,VALID,89.7549,VALID,0,VALID,21.4775,VALID,53,VALID,0.584375,
2011-07-01, 01:46:04,VALID,1000.55,VALID,0,VALID,89.8235,VALID,0,VALID,21.4596,VALID,53,VALID,0.475391,
2011-07-01, 01:47:04,VALID,1000.53,VALID,0,VALID,89.8693,VALID,0,VALID,21.4612,VALID,53,VALID,0.487109,
2011-07-01, 01:48:04,VALID,1000.49,VALID,0,VALID,89.8769,VALID,0,VALID,21.4206,VALID,53,VALID,0.504297,
2011-07-01, 01:49:04,VALID,1000.48,VALID,0,VALID,89.8388,VALID,0,VALID,21.4206,VALID,53,VALID,0.378125,
2011-07-01, 01:50:04,VALID,1000.5,VALID,0,VALID,89.8617,VALID,0,VALID,21.4206,VALID,53,VALID,0.266016,
2011-07-01, 01:51:04,VALID,1000.49,VALID,0,VALID,89.8998,VALID,0,VALID,21.4011,VALID,53,VALID,0.158594,
2011-07-01, 01:52:04,VALID,1000.45,VALID,0,VALID,89.8998,VALID,0,VALID,21.4011,VALID,53,VALID,0,
2011-07-01, 01:53:04,VALID,1000.49,VALID,0,VALID,89.9456,VALID,0,VALID,21.4222,VALID,53,VALID,0.0222656,
2011-07-01, 01:54:04,VALID,1000.48,VALID,0,VALID,90.1363,VALID,0,VALID,21.3816,VALID,53,VALID,0.282031,
2011-07-01, 01:55:04,VALID,1000.45,VALID,0,VALID,90.35,VALID,0,VALID,21.4011,VALID,53,VALID,0.220313,
2011-07-01, 01:56:04,VALID,1000.44,VALID,0,VALID,90.4491,VALID,0,VALID,21.3816,VALID,53,VALID,0,
2011-07-01, 01:57:04,VALID,1000.42,VALID,0,VALID,90.472,VALID,0,VALID,21.3621,VALID,53,VALID,0,
2011-07-01, 01:58:04,VALID,1000.41,VALID,0,VALID,90.5178,VALID,0,VALID,21.341,VALID,53,VALID,0,
2011-07-01, 01:59:04,VALID,1000.39,VALID,0,VALID,90.4949,VALID,0,VALID,21.3231,VALID,53,VALID,0,
2011-07-01, 02:00:04,VALID,1000.38,VALID,0,VALID,90.4949,VALID,0,VALID,21.3231,VALID,53,VALID,0,
2011-07-01, 02:01:04,VALID,1000.35,VALID,0,VALID,90.4797,VALID,0,VALID,21.3231,VALID,53,VALID,0,
2011-07-01, 02:02:04,VALID,1000.35,VALID,0,VALID,90.4339,VALID,0,VALID,21.3247,VALID,53,VALID,0,
2011-07-01, 02:03:04,VALID,1000.35,VALID,0,VALID,90.3347,VALID,0,VALID,21.2841,VALID,53,VALID,0.355078,
2011-07-01, 02:04:04,VALID,1000.35,VALID,0,VALID,90.2431,VALID,0,VALID,21.2646,VALID,53,VALID,0.316797,
2011-07-01, 02:05:04,VALID,1000.35,VALID,0,VALID,90.205,VALID,0,VALID,21.2646,VALID,53,VALID,0.287891,
2011-07-01, 02:06:04,VALID,1000.32,VALID,0,VALID,90.1821,VALID,0,VALID,21.3052,VALID,53,VALID,0.187109,
2011-07-01, 02:07:04,VALID,1000.32,VALID,0,VALID,90.2203,VALID,0,VALID,21.2646,VALID,53,VALID,0.278906,
2011-07-01, 02:08:04,VALID,1000.28,VALID,0,VALID,90.2431,VALID,0,VALID,21.2646,VALID,53,VALID,0.0988281,
2011-07-01, 02:09:04,VALID,1000.26,VALID,0,VALID,90.266,VALID,0,VALID,21.2646,VALID,53,VALID,0.138281,
2011-07-01, 02:10:04,VALID,1000.28,VALID,0,VALID,90.2584,VALID,0,VALID,21.2646,VALID,53,VALID,0,
2011-07-01, 02:11:04,VALID,1000.29,VALID,0,VALID,90.1897,VALID,0,VALID,21.2662,VALID,53,VALID,0,
2011-07-01, 02:12:04,VALID,1000.26,VALID,0,VALID,90.1287,VALID,0,VALID,21.2256,VALID,53,VALID,0,
2011-07-01, 02:13:04,VALID,1000.24,VALID,0,VALID,90.1287,VALID,0,VALID,21.2061,VALID,53,VALID,0,
2011-07-01, 02:14:04,VALID,1000.23,VALID,0,VALID,90.2203,VALID,0,VALID,21.2256,VALID,53,VALID,0.0148437,
2011-07-01, 02:15:04,VALID,1000.25,VALID,0,VALID,90.2737,VALID,0,VALID,21.2256,VALID,53,VALID,0.132422,
2011-07-01, 02:16:04,VALID,1000.26,VALID,0,VALID,90.35,VALID,0,VALID,21.2435,VALID,53,VALID,0.246094,
2011-07-01, 02:17:04,VALID,1000.24,VALID,0,VALID,90.3423,VALID,0,VALID,21.263,VALID,53,VALID,0.339844,
2011-07-01, 02:18:04,VALID,1000.2,VALID,0,VALID,90.2508,VALID,0,VALID,21.302,VALID,53,VALID,0.407813,
2011-07-01, 02:19:04,VALID,1000.21,VALID,0,VALID,90.1821,VALID,0,VALID,21.341,VALID,53,VALID,0.476172,
2011-07-01, 02:20:04,VALID,1000.22,VALID,0,VALID,90.0677,VALID,0,VALID,21.341,VALID,53,VALID,0.594922,
2011-07-01, 02:21:04,VALID,1000.22,VALID,0,VALID,89.9761,VALID,0,VALID,21.3605,VALID,63,VALID,0.644531,
2011-07-01, 02:22:04,VALID,1000.21,VALID,0,VALID,89.8846,VALID,0,VALID,21.3605,VALID,84,VALID,0.56875,
2011-07-01, 02:23:04,VALID,1000.21,VALID,0,VALID,89.793,VALID,0,VALID,21.3816,VALID,84,VALID,0.741406,
2011-07-01, 02:24:04,VALID,1000.2,VALID,0,VALID,89.6557,VALID,0,VALID,21.4011,VALID,89,VALID,0.748828,
2011-07-01, 02:25:04,VALID,1000.17,VALID,0,VALID,89.5412,VALID,0,VALID,21.4206,VALID,105,VALID,0.838672,
2011-07-01, 02:26:04,VALID,1000.14,VALID,0,VALID,89.4039,VALID,0,VALID,21.4401,VALID,105,VALID,0.819922,
2011-07-01, 02:27:04,VALID,1000.14,VALID,0,VALID,89.236,VALID,0,VALID,21.4596,VALID,105,VALID,0.755469,
2011-07-01, 02:28:04,VALID,1000.12,VALID,0,VALID,89.0682,VALID,0,VALID,21.4791,VALID,105,VALID,0.685156,
2011-07-01, 02:29:04,VALID,1000.08,VALID,0,VALID,88.9309,VALID,0,VALID,21.4791,VALID,105,VALID,0.701172,
2011-07-01, 02:30:04,VALID,1000.08,VALID,0,VALID,88.8698,VALID,0,VALID,21.4791,VALID,105,VALID,0.604688,
2011-07-01, 02:31:04,VALID,1000.08,VALID,0,VALID,88.9309,VALID,0,VALID,21.4986,VALID,105,VALID,0.510156,
2011-07-01, 02:32:04,VALID,1000.1,VALID,0,VALID,88.908,VALID,0,VALID,21.5165,VALID,94,VALID,0.639453,
2011-07-01, 02:33:04,VALID,1000.09,VALID,0,VALID,88.8317,VALID,0,VALID,21.5181,VALID,94,VALID,0.764453,
2011-07-01, 02:34:04,VALID,1000.11,VALID,0,VALID,88.8011,VALID,0,VALID,21.5376,VALID,94,VALID,0.577344,
2011-07-01, 02:35:04,VALID,1000.09,VALID,0,VALID,88.7783,VALID,0,VALID,21.5165,VALID,94,VALID,0.669531,
2011-07-01, 02:36:04,VALID,1000.1,VALID,0,VALID,88.7477,VALID,0,VALID,21.536,VALID,94,VALID,0.639453,
2011-07-01, 02:37:04,VALID,1000.1,VALID,0,VALID,88.6333,VALID,0,VALID,21.5555,VALID,94,VALID,0.723437,
2011-07-01, 02:38:04,VALID,1000.08,VALID,0,VALID,88.4883,VALID,0,VALID,21.5555,VALID,94,VALID,0.567969,
2011-07-01, 02:39:04,VALID,1000.04,VALID,0,VALID,88.3968,VALID,0,VALID,21.5555,VALID,94,VALID,0.520312,
2011-07-01, 02:40:04,VALID,1000.02,VALID,0,VALID,88.3129,VALID,0,VALID,21.5555,VALID,94,VALID,0.519531,
2011-07-01, 02:41:04,VALID,1000.01,VALID,0,VALID,88.2747,VALID,0,VALID,21.5766,VALID,94,VALID,0.573828,
2011-07-01, 02:42:04,VALID,1000.01,VALID,0,VALID,88.2594,VALID,0,VALID,21.5945,VALID,94,VALID,0.730078,
2011-07-01, 02:43:04,VALID,999.988,VALID,0,VALID,88.1832,VALID,0,VALID,21.5945,VALID,94,VALID,0.500781,
2011-07-01, 02:44:04,VALID,999.998,VALID,0,VALID,87.9771,VALID,0,VALID,21.6156,VALID,94,VALID,0.152344,
2011-07-01, 02:45:04,VALID,1000.01,VALID,0,VALID,87.8474,VALID,0,VALID,21.5555,VALID,94,VALID,0.338281,
2011-07-01, 02:46:04,VALID,999.989,VALID,0,VALID,87.939,VALID,0,VALID,21.5376,VALID,94,VALID,0.420312,
2011-07-01, 02:47:04,VALID,999.964,VALID,0,VALID,88.2518,VALID,0,VALID,21.4775,VALID,94,VALID,0.503906,
2011-07-01, 02:48:04,VALID,999.959,VALID,0,VALID,88.5646,VALID,0,VALID,21.4385,VALID,94,VALID,0.426562,
2011-07-01, 02:49:04,VALID,999.967,VALID,0,VALID,88.7935,VALID,0,VALID,21.38,VALID,94,VALID,0.505859,
2011-07-01, 02:50:04,VALID,999.921,VALID,0,VALID,89.0453,VALID,0,VALID,21.3215,VALID,94,VALID,0.525391,
2011-07-01, 02:51:04,VALID,999.927,VALID,0,VALID,89.381,VALID,0,VALID,21.263,VALID,94,VALID,0.537891,
2011-07-01, 02:52:04,VALID,999.923,VALID,0,VALID,89.7167,VALID,0,VALID,21.2646,VALID,94,VALID,0.591016,
2011-07-01, 02:53:04,VALID,999.932,VALID,0,VALID,89.8998,VALID,0,VALID,21.2435,VALID,27,VALID,0.7625,
2011-07-01, 02:54:04,VALID,999.93,VALID,0,VALID,89.9609,VALID,0,VALID,21.224,VALID,20,VALID,0.674609,
2011-07-01, 02:55:04,VALID,999.932,VALID,0,VALID,89.854,VALID,0,VALID,21.2256,VALID,20,VALID,0.762891,
2011-07-01, 02:56:04,VALID,999.9,VALID,0,VALID,89.8235,VALID,0,VALID,21.2045,VALID,20,VALID,0.790625,
2011-07-01, 02:57:05,VALID,999.922,VALID,0,VALID,89.7777,VALID,0,VALID,21.2061,VALID,20,VALID,0.741016,
2011-07-01, 02:58:05,VALID,999.884,VALID,0,VALID,89.7091,VALID,0,VALID,21.146,VALID,20,VALID,0.605078,
2011-07-01, 02:59:05,VALID,999.909,VALID,0,VALID,89.7014,VALID,0,VALID,21.1281,VALID,20,VALID,0.435156,
2011-07-01, 03:00:05,VALID,999.887,VALID,0,VALID,89.6328,VALID,0,VALID,21.0485,VALID,20,VALID,0.153906,
2011-07-01, 03:01:05,VALID,999.893,VALID,0,VALID,89.6633,VALID,0,VALID,20.9705,VALID,20,VALID,0.538281,
2011-07-01, 03:02:05,VALID,999.897,VALID,0,VALID,89.8998,VALID,0,VALID,20.9315,VALID,20,VALID,0.405469,
2011-07-01, 03:03:05,VALID,999.905,VALID,0,VALID,90.2508,VALID,0,VALID,20.912,VALID,20,VALID,0.516797,
2011-07-01, 03:04:05,VALID,999.898,VALID,0,VALID,90.4339,VALID,0,VALID,20.873,VALID,20,VALID,0.786328,
2011-07-01, 03:05:05,VALID,999.89,VALID,0,VALID,90.8154,VALID,0,VALID,20.9136,VALID,20,VALID,0.796875,
2011-07-01, 03:06:05,VALID,999.901,VALID,0,VALID,90.9603,VALID,0,VALID,20.9315,VALID,20,VALID,0.748438,
2011-07-01, 03:07:05,VALID,999.934,VALID,0,VALID,90.9832,VALID,0,VALID,20.9315,VALID,20,VALID,0.791016,
2011-07-01, 03:08:05,VALID,999.913,VALID,0,VALID,90.884,VALID,0,VALID,20.9331,VALID,20,VALID,0.728125,
2011-07-01, 03:09:05,VALID,999.866,VALID,0,VALID,91.029,VALID,0,VALID,20.9315,VALID,20,VALID,0.760156,
2011-07-01, 03:10:05,VALID,999.922,VALID,0,VALID,91.1129,VALID,0,VALID,20.951,VALID,20,VALID,0.788281,
2011-07-01, 03:11:05,VALID,999.871,VALID,0,VALID,91.1816,VALID,0,VALID,20.9705,VALID,20,VALID,0.879687,
2011-07-01, 03:12:05,VALID,999.884,VALID,0,VALID,91.2655,VALID,0,VALID,21.0111,VALID,20,VALID,0.766016,
2011-07-01, 03:13:05,VALID,999.845,VALID,0,VALID,91.2655,VALID,0,VALID,21.0306,VALID,20,VALID,0.786328,
2011-07-01, 03:14:05,VALID,999.861,VALID,0,VALID,91.2121,VALID,0,VALID,21.029,VALID,20,VALID,0.770312,
2011-07-01, 03:15:05,VALID,999.836,VALID,0,VALID,91.1892,VALID,0,VALID,21.029,VALID,20,VALID,0.713281,
2011-07-01, 03:16:05,VALID,999.826,VALID,0,VALID,91.0977,VALID,0,VALID,21.0306,VALID,20,VALID,0.773438,
2011-07-01, 03:17:05,VALID,999.844,VALID,0,VALID,91.09,VALID,0,VALID,21.0306,VALID,20,VALID,0.844922,
2011-07-01, 03:18:05,VALID,999.791,VALID,0,VALID,91.1129,VALID,0,VALID,21.0306,VALID,20,VALID,0.779297,
2011-07-01, 03:19:05,VALID,999.82,VALID,0,VALID,91.1206,VALID,0,VALID,21.0306,VALID,20,VALID,0.789844,
2011-07-01, 03:20:05,VALID,999.809,VALID,0,VALID,91.1129,VALID,0,VALID,21.0306,VALID,20,VALID,0.736719,
2011-07-01, 03:21:05,VALID,999.825,VALID,0,VALID,91.0824,VALID,0,VALID,21.0111,VALID,20,VALID,0.682813,
2011-07-01, 03:22:05,VALID,999.818,VALID,0,VALID,91.1206,VALID,0,VALID,20.9916,VALID,20,VALID,0.68125,
2011-07-01, 03:23:05,VALID,999.84,VALID,0,VALID,91.1511,VALID,0,VALID,20.9721,VALID,20,VALID,0.692969,
2011-07-01, 03:24:05,VALID,999.854,VALID,0,VALID,91.2274,VALID,0,VALID,20.9721,VALID,20,VALID,0.553125,
2011-07-01, 03:25:05,VALID,999.871,VALID,0,VALID,91.2808,VALID,0,VALID,20.9526,VALID,20,VALID,0.460547,
2011-07-01, 03:26:05,VALID,999.837,VALID,0,VALID,91.3189,VALID,0,VALID,20.9526,VALID,20,VALID,0.492578,
2011-07-01, 03:27:05,VALID,999.829,VALID,0,VALID,91.4181,VALID,0,VALID,20.9526,VALID,20,VALID,0.557031,
2011-07-01, 03:28:05,VALID,999.848,VALID,0,VALID,91.5097,VALID,0,VALID,20.9526,VALID,20,VALID,0.566797,
2011-07-01, 03:29:05,VALID,999.836,VALID,0,VALID,91.5554,VALID,0,VALID,20.9526,VALID,20,VALID,0.559766,
2011-07-01, 03:30:05,VALID,999.864,VALID,0,VALID,91.6012,VALID,0,VALID,20.9526,VALID,20,VALID,0.564844,
2011-07-01, 03:31:05,VALID,999.828,VALID,0,VALID,91.6165,VALID,0,VALID,20.9315,VALID,20,VALID,0.5875,
2011-07-01, 03:32:05,VALID,999.815,VALID,0,VALID,91.6317,VALID,0,VALID,20.9526,VALID,20,VALID,0.679297,
2011-07-01, 03:33:05,VALID,999.816,VALID,0,VALID,91.6623,VALID,0,VALID,20.9526,VALID,20,VALID,0.692969,
2011-07-01, 03:34:05,VALID,999.815,VALID,0,VALID,91.6851,VALID,0,VALID,20.9526,VALID,20,VALID,0.801953,
2011-07-01, 03:35:05,VALID,999.805,VALID,0,VALID,91.7385,VALID,0,VALID,20.9721,VALID,20,VALID,0.835156,
2011-07-01, 03:36:05,VALID,999.793,VALID,0,VALID,91.7538,VALID,0,VALID,20.9916,VALID,20,VALID,0.742188,
2011-07-01, 03:37:05,VALID,999.792,VALID,0,VALID,91.7691,VALID,0,VALID,21.0111,VALID,20,VALID,0.680859,
2011-07-01, 03:38:05,VALID,999.793,VALID,0,VALID,91.7614,VALID,0,VALID,20.9705,VALID,20,VALID,0.783594,
2011-07-01, 03:39:05,VALID,999.736,VALID,0,VALID,91.7767,VALID,0,VALID,20.9916,VALID,20,VALID,0.802734,
2011-07-01, 03:40:05,VALID,999.747,VALID,0,VALID,91.7691,VALID,0,VALID,20.9721,VALID,20,VALID,0.805859,
2011-07-01, 03:41:05,VALID,999.727,VALID,0,VALID,91.7614,VALID,0,VALID,20.9721,VALID,20,VALID,0.911328,
2011-07-01, 03:42:05,VALID,999.723,VALID,0,VALID,91.792,VALID,0,VALID,20.9526,VALID,20,VALID,0.919922,
2011-07-01, 03:43:05,VALID,999.732,VALID,0,VALID,91.8377,VALID,0,VALID,20.9331,VALID,20,VALID,0.871094,
2011-07-01, 03:44:05,VALID,999.748,VALID,0,VALID,91.8683,VALID,0,VALID,20.9331,VALID,20,VALID,0.81875,
2011-07-01, 03:45:05,VALID,999.738,VALID,0,VALID,91.8683,VALID,0,VALID,20.9136,VALID,20,VALID,0.728516,
2011-07-01, 03:46:05,VALID,999.719,VALID,0,VALID,91.853,VALID,0,VALID,20.8941,VALID,20,VALID,0.651563,
2011-07-01, 03:47:05,VALID,999.746,VALID,0,VALID,91.8377,VALID,0,VALID,20.8551,VALID,20,VALID,0.489062,